User: anonymous   Login
Location: Unspecified
(0.0000°N, 0.0000°E)
Time: 00:18:32
(UTC+00:00)
Language:

OV3-3 - Orbit

View from above orbital plane
View from above orbital plane
View from above satellite
View from above satellite

Ground track
Ground track

The orbit data is extracted from the following two-line orbital elements,

1  2389U 66070A   18203.56961473 +.00002123 +00000-0 +11533-3 0  9990
2  2389 081.3845 204.6448 1243820 037.1747 330.9242 12.91933407221489
Epoch (UTC): 22 July 2018 13:40:14
Eccentricity: 0.1243820
inclination: 81.3845°
perigee height: 339 km
apogee height: 2248 km
right ascension of ascending node: 204.6448°
argument of perigee: 37.1747°
revolutions per day: 12.91933407
mean anomaly at epoch: 330.9242°
orbit number at epoch: 22148

The dashed part of the orbit path shows where the satellite is in the earth's shadow,  

DLR